Flag Weather past 2 weeks in Ontario, Oregon, U.S.A.

Now
39 °F

Clear.


Feels Like: 37 °F
Forecast: 38 / 49 °F
Wind: 3 mph from West

Location: Ontario Municipal Airport

Current Time: Nov 27, 2014 at 1:43:25 AM

Latest Report: Nov 27, 2014 at 12:53 AM


Visibility: 10 mi

Pressure: 30.22 "Hg

Humidity: 93%

Dew point: 37 °F

Location of OntarioLocation

Historic Weather in Ontario — Graph

°F

Ontario temperature yesterday

Maximum temperature yesterday: 53 °F (at 1:53 PM)
Minimum temperature yesterday: 33 °F (at 7:53 AM)
Average temperature yesterday: 42 °F

Past Weeks' High & Low Weather Summary

 TemperatureHumidityPressure
High53 °F (Nov 26, 1:53 PM)96% (Nov 22, 2:53 AM)30.84 "Hg (Nov 22, 2:53 AM)
Low-2 °F (Nov 17, 6:53 AM)25% (Nov 12, 11:53 AM)29.73 "Hg (Nov 22, 8:01 AM)
Average23 °F78%30.36 "Hg
* Reported Nov 11 11:53 PM — Nov 26 11:53 PM, Ontario, Weather by CustomWeather, © 2014

Note: Actual official high and low records may vary slightly from our data, if they occured in-between our weather recording intervals... More about our weather records

Advertising

Ontario weather history for previous 24 hours

 ConditionsComfort  
Time TempWeatherWind HumidityBarometerVisibility
11:53 PM
Nov 26
38 °FClear.3 mph93%30.24 "Hg10 mi
10:53 PM40 °FClear.3 mph89%30.23 "Hg10 mi
9:53 PM41 °FClear.6 mph89%30.23 "Hg10 mi
8:53 PM41 °FClear.3 mph89%30.25 "Hg10 mi
7:53 PM41 °FClear.3 mph89%30.26 "Hg10 mi
6:53 PM42 °FClear.3 mph85%30.26 "Hg10 mi
5:53 PM46 °FClear.3 mph79%30.27 "Hg10 mi
4:53 PM49 °FSunny.No wind71%30.29 "Hg10 mi
3:53 PM53 °FSunny.3 mph64%30.29 "Hg10 mi
2:53 PM53 °FSunny.5 mph66%30.29 "Hg10 mi
1:53 PM53 °FSunny.5 mph61%30.31 "Hg10 mi
12:53 PM50 °FSunny.3 mph68%30.34 "Hg10 mi
11:53 AM47 °FSunny.3 mph77%30.38 "Hg10 mi
10:53 AM42 °FSunny.No wind89%30.40 "Hg10 mi
9:53 AM40 °FSunny.7 mph86%30.39 "Hg10 mi
8:53 AM36 °FFog.No wind92%30.39 "Hg6 mi
8:03 AM33 °FFog.3 mph92%30.33 "Hg2 mi
7:53 AM33 °FFog.3 mph96%30.39 "Hg4 mi
6:53 AM37 °FClear.5 mph93%30.38 "Hg7 mi
5:53 AM38 °FClear.5 mph90%30.36 "Hg9 mi
4:53 AM37 °FClear.8 mph89%30.36 "Hg9 mi
3:53 AM37 °FClear.5 mph89%30.34 "Hg8 mi
2:53 AM37 °FClear.No wind93%30.34 "Hg10 mi
1:53 AM38 °FClear.7 mph90%30.33 "Hg10 mi
Weather by CustomWeather, © 2014

See weather overviewHow to use our weather pages